Hourly Data Report for May 19, 2012

All times are specified in Local Standard Time (LST). Add 1 hour to adjust for Daylight Saving Time where and when it is observed.

DEER LAKE A
NEWFOUNDLAND

49°12'33.000" N
57°23'40.000" W
21.90 m
8401502
71809
YDF

Download Data

Hourly Data (May 2012)
Hourly Data Report for May 19, 2012
Temp Definition
°C
Dew Point Temp Definition
°C
Rel Hum Definition
%
Wind Dir Definition
10's deg

Wind Spd Definition
km/h
Visibility Definition
km
Stn Press Definition
kPa
Hmdx Definition


Wind Chill Definition


Weather Definition


TIME
00:30 Legend Double Dagger 7.0 -0.2 60 22 27 10.0 100.96     LegendNANA
01:30 Legend Double Dagger 6.1 -0.4 63 21 22 10.0 100.94     LegendNANA
02:30 Legend Double Dagger 6.8 0.3 63 22 18 10.0 100.91     Clear
03:30 Legend Double Dagger 7.3 0.7 63 22 26 10.0 100.91     LegendNANA
04:30 Legend Double Dagger 6.6 1.5 70 21 27 10.0 100.86     LegendNANA
05:30 Legend Double Dagger 7.9 0.9 61 23 23 10.0 100.85     Clear
06:30 Legend Double Dagger 10.2 0.3 50 24 33 10.0 100.82     LegendNANA
07:30 Legend Double Dagger 10.7 -0.4 46 24 40 10.0 100.73     LegendNANA
08:30 Legend Double Dagger 11.2 -0.6 44 24 40 10.0 100.72     Mainly Clear
09:30 Legend Double Dagger 11.1 -1.3 42 25 43 10.0 100.72     LegendNANA
10:30 Legend Double Dagger 11.5 -1.3 41 24 44 10.0 100.79     LegendNANA
11:30 Legend Double Dagger 11.3 -1.4 41 25 39 10.0 100.85     Mainly Clear
12:30 Legend Double Dagger 11.7 -1.8 39 24 34 10.0 100.90     LegendNANA
13:30 Legend Double Dagger 11.1 -1.6 41 26 40 10.0 100.91     LegendNANA
14:30 Legend Double Dagger 11.8 -1.0 41 26 30 10.0 100.95     Mainly Clear
15:30 Legend Double Dagger 11.9 -1.2 40 25 35 10.0 100.95     LegendNANA
16:30 Legend Double Dagger 11.8 -0.7 42 25 25 10.0 101.00     LegendNANA
17:30 Legend Double Dagger 11.3 0.1 46 26 20 10.0 101.05     Mainly Clear
18:30 Legend Double Dagger 9.9 0.0 50 26 17 10.0 101.08     LegendNANA
19:30 Legend Double Dagger 9.0 0.2 54 23 21 10.0 101.11     LegendNANA
20:30 Legend Double Dagger 8.5 -0.3 54 23 15 10.0 101.22     Mostly Cloudy
21:30 Legend Double Dagger 7.4 0.4 61   0 10.0 101.30     LegendNANA
22:30 Legend Double Dagger 6.0 1.4 72   0 10.0 101.31     LegendNANA
23:30 Legend Double Dagger 5.9 1.4 73 24 9 10.0 101.34     Mainly Clear

Notes on Data Quality.

Legend

  • E = Estimated
  • M = Missing
  • NA = Not Available
  • ‡ = Partner data that is not subject to review by the National Climate Archives
Date modified: